Regional Weather Roundup
Issued by NWS

Home | Current Version | Previous Version | Graphics & Text | Print | Product List | Glossary On
Versions: 1 2 3 4 5 6 7 8 9 10 11 12 13 14 15 16 17 18 19 20 21 22 23 24 25 26 27 28 29 30 31 32 33 34 35 36 37 38 39 40 41 42 43 44 45 46 47 48 49 50
000
ASUS43 KMPX 251601
RWRMN
WEATHER ROUNDUP FOR MINNESOTA
NATIONAL WEATHER SERVICE TWIN CITIES/CHANHASSEN MN
1100 AM CDT THU MAY 25 2017


NOTE: "FAIR" INDICATES FEW OR NO CLOUDS BELOW 12,000 FEET WITH NO
SIGNIFICANT WEATHER AND/OR OBSTRUCTIONS TO VISIBILITY. N/A MEANS
CURRENT SKY AND/OR WEATHER CONDITIONS ARE NOT AVAILABLE.

MNZ060>063-068>070-251700-
   Twin Cities Metro

CITY           SKY/WX    TMP DP  RH WIND       PRES   REMARKS
TWIN CITIES    PTSUNNY   63  49  60 S12       29.68F
ST PAUL        MOSUNNY   63  51  65 SE13      29.69F
CRYSTAL        MOSUNNY   63  47  55 SE15G21   29.66F
BLAINE         PTSUNNY   64  48  55 SE13G20   29.67F
LAKEVILLE      MOSUNNY   63  52  67 SE10      29.68F
EDEN PRAIRIE   CLOUDY    65  50  58 SE14      29.67F
SOUTH ST PAUL  SUNNY     62  49  60 SE9       29.69S
LAKE ELMO      PTSUNNY   63  50  63 SE8       29.70S
$$
MNZ001>005-007-008-013>017-022>024-027-028-251700-
   Northwest Minnesota

CITY           SKY/WX    TMP DP  RH WIND       PRES   REMARKS
BEMIDJI        CLOUDY    58  46  63 SE15      29.63S
HALLOCK        CLOUDY    61  46  59 SE18      29.55S
ROSEAU         CLOUDY    63  48  59 S16G25    29.61S
WARROAD        PTSUNNY   63  46  55 S20G26    29.62F
CROOKSTON      CLOUDY    63  46  55 S22G30    29.56F
FOSSTON        MOSUNNY   61  46  59 S18       29.61S
DETROIT LAKES  CLOUDY    61  46  59 S17G28    29.60S
MOORHEAD       PTSUNNY   63  46  55 SE29      29.54F
PARK RAPIDS    LGT RAIN  60  44  55 S16       29.62F
MAHNOMEN       FAIR      60  46  60 S15G22    29.59F
$$
MNZ006-009>011-018-025>026-251700-
   North Central Minnesota

CITY           SKY/WX    TMP DP  RH WIND       PRES   REMARKS
BAUDETTE       PTSUNNY   62  45  53 S17G23    29.64S
FLAG ISLAND    MOSUNNY   57  45  62 SE10      29.63S
INTL FALLS     PTSUNNY   63  43  48 SE13G24   29.68F
WASKISH        CLOUDY    63  46  55 SE12G21   29.64
BIG FORK       CLOUDY    63  45  51 SE12G18   29.67S
LONGVILLE      CLOUDY    61  46  59 SE10G16   29.65S
GRAND RAPIDS   PTSUNNY   58  46  64 SE12G17   29.69S
CRANE LAKE     MOSUNNY   63  45  51 SE5       29.71F
ORR            PTSUNNY   59  41  51 SE7       29.67F
COOK           PTSUNNY   61  45  55 SE9       29.71S
WALKER         PTSUNNY   57  45  62 SE15G21   29.64S
$$
MNZ012-019>021-037-251700-
   Northeast Minnesota

CITY           SKY/WX    TMP DP  RH WIND       PRES   REMARKS
DULUTH         PTSUNNY   54  46  74 E9        29.73S
ELY            PTSUNNY   59  43  55 SE13      29.72F
HIBBING        CLOUDY    56  44  64 SE16      29.70F
EVELETH        CLOUDY    58  42  55 SE9G16    29.73S
DULUTH HARBOR  PTSUNNY   46  43  87 NE8       29.76S
TWO HARBORS    MOSUNNY   59  48  67 E14       29.72S
SILVER BAY     PTSUNNY   57  46  67 E7        29.74F
GRAND MARAIS     N/A     53  39  59 E3        29.77F
G MARAIS ARPRT PTSUNNY   61  39  44 E13       29.77S
$$
MNZ029>031-032-039>041-046>048-054>057-064-251700-
   West Central Minnesota

CITY           SKY/WX    TMP DP  RH WIND       PRES   REMARKS
FERGUS FALLS   CLOUDY    63  48  59 S21G32    29.56F
WHEATON        SUNNY     64  48  55 SE25G32   29.56S
MORRIS         SUNNY     63  52  67 SE24G35   29.57S
ALEXANDRIA     CLOUDY    62  47  57 SE20G30   29.63F
ELBOW LAKE     FAIR      62  50  65 S25       29.59F
WADENA         CLOUDY    61  46  59 SE21G28   29.62F
GLENWOOD       CLOUDY    63  48  59 SE20      29.62F
APPLETON       SUNNY     64  48  55 S18G26    29.57S
BENSON         SUNNY     64  48  55 S21G31    29.61S
ORTONVILLE     MOSUNNY   63  50  63 S16G28    29.54F
MADISON        SUNNY     66  52  59 S22G33    29.55F
WILLMAR        FAIR      64  48  55 S15G26    29.63F
$$
MNZ033>034-036-042>043-049>051-058-059-251700-
   Central Minnesota

CITY           SKY/WX    TMP DP  RH WIND       PRES   REMARKS
ST CLOUD       PTSUNNY   61  51  70 SE16      29.66R
SAUK CENTRE    PTSUNNY   62  48  62 S18       29.64F
PAYNESVILLE    CLOUDY    62  47  58 SE14G21   29.65F
AITKIN         MOSUNNY   61  46  59 SE14      29.65S
PINE RIVER     PTSUNNY   59  48  67 SE13      29.69S
BRAINERD       CLOUDY    59  48  67 SE9       29.66R
STAPLES        CLOUDY    61  45  55 S14       29.64F
LONG PRAIRIE   PTSUNNY   59  46  63 E17G23    29.64F
LITTLE FALLS   PTSUNNY   59  46  63 SE12G18   29.66F
LITCHFIELD     CLOUDY    63  52  67 SE13      29.66F
BUFFALO        CLOUDY    61  49  62 SE7       29.68R
MAPLE LAKE     MOSUNNY   64  53  69 SE6       29.68R
HUTCHINSON     CLOUDY    62  52  69 SE14G21   29.67S
$$
MNZ037-044-045-052-053-251700-
   East Central Minnesota

CITY           SKY/WX    TMP DP  RH WIND       PRES   REMARKS
PRINCETON      MOSUNNY   64  52  63 SE12      29.67S
MORA           MOSUNNY   59  48  67 SE9       29.69F
CAMBRIDGE      MOSUNNY   64  48  55 SE10G16   29.66S
RUSH CITY      PTSUNNY   61  48  62 SE8       29.69F
MOOSE LAKE     SUNNY     59  46  63 E6        29.67F
HINCKLEY       FAIR      61  46  59 SE9G18    29.68F
CLOQUET        CLOUDY    54  43  66 E9        29.71F
MCGREGOR       MOSUNNY   61  46  59 SE13      29.68S
$$
MNZ071>073-080-081-089-090-097-098-251700-
   Southwest Minnesota

CITY           SKY/WX    TMP DP  RH WIND       PRES   REMARKS
MONTEVIDEO     SUNNY     63  50  63 S18G26    29.58F
CANBY          SUNNY     65  50  58 SE23      29.56F
MARSHALL       SUNNY     63  49  60 S26G33    29.58
REDWOOD FALLS  MOSUNNY   63  47  55 SE24G32   29.62F
OLIVIA         MOSUNNY   63  48  59 S17G23    29.62F
PIPESTONE      SUNNY     63  46  55 S26G33    29.56F
WINDOM         MOSUNNY   63  46  55 SE18G26   29.62F
WORTHINGTON    CLOUDY    61  49  64 S22G29    29.61F
JACKSON        SUNNY     61  46  59 S16G23    29.65F
TRACY          MOSUNNY   62  51  68 S20G28    29.60F
SLAYTON        MOSUNNY   60  51  69 SE22G29   29.60S
$$
MNZ065>067-074>077-082>085-091>093-251700-
   South Central Minnesota

CITY           SKY/WX    TMP DP  RH WIND       PRES   REMARKS
MANKATO        MOSUNNY   63  50  62 SE17      29.68S
NEW ULM        MOSUNNY   63  50  63 SE15G23   29.64F
ST JAMES       MOSUNNY   63  52  67 SE17      29.66F
FAIRMONT       MOSUNNY   63  50  62 SE17G24   29.65F
GLENCOE        CLOUDY    62  53  72 SE10      29.67S
FARIBAULT      SUNNY     63  50  63 SE10      29.69F
OWATONNA       SUNNY     63  48  59 SE10      29.69F
WASECA         MOSUNNY   61  52  72 SE10      29.70F
ALBERT LEA     SUNNY     63  52  67 SE8       29.69F
$$
MNZ078>079-086>088-094>096-251700-
   Southeast Minnesota

CITY           SKY/WX    TMP DP  RH WIND       PRES   REMARKS
ROCHESTER      MOSUNNY   60  52  74 SE10      29.71F
RED WING       SUNNY     63  48  59 SE8       29.68F
STANTON        MOSUNNY   63  50  63 S8        29.68F
DODGE CENTER   MOSUNNY   61  48  63 SE6       29.70S
WINONA         CLOUDY    59  50  72 CALM      29.72S
AUSTIN         MOSUNNY   61  50  67 SE3       29.70S
PRESTON        SUNNY     58  49  72 SE6       29.71F
$$
ABBREVIATIONS USED IN REMARKS
   TC - TEMPERATURES IN CELSIUS
  WCI - WIND CHILL INDEX
   HX - HEAT INDEX
  VSB - VISIBILITY
$$



USA.gov is the U.S. government's official web portal to all federal, state and local government web resources and services.